DW5274 Weather Reports


time (UTC)temp
C
wind
direction
speed
KPH
gust
KPH
rain 1hr
cm
rain 24hr
cm
rain mn
cm
humidity
%
barometer
mb
20260506044527 17 14 0.0 0.0 0.00 0.00 0.00 38 1007.3
20260506043024 17 15 0.0 0.0 0.00 0.00 0.00 38 1007.1
20260506041501 18 15 0.0 0.0 0.00 0.00 0.00 37 1007.0
20260506034543 20 15 0.0 0.0 0.00 0.00 0.00 34 1006.3
20260506033037 20 15 0.0 0.0 0.00 0.00 0.00 32 1006.0
20260506031533 21 15 1.6 0.0 0.00 0.00 0.00 31 1005.7
20260506030029 22 15 6.4 0.0 0.00 0.00 0.00 28 1005.4
20260506024527 22 32 6.4 0.0 0.00 0.00 0.00 28 1005.1
20260506023024 23 345 6.4 0.0 0.00 0.00 0.00 26 1004.9
20260506021520 23 349 8.0 0.0 0.00 0.00 0.00 26 1004.6
20260506020030 24 36 6.4 0.0 0.00 0.00 0.00 25 1004.4
20260506014517 24 360 9.7 0.0 0.00 0.00 0.00 24 1004.3
20260506013059 25 22 9.7 0.0 0.00 0.00 0.00 25 1004.2
20260506011601 25 350 9.7 0.0 0.00 0.00 0.00 24 1004.1
20260506010040 25 36 9.7 0.0 0.00 0.00 0.00 24 1004.1
20260506004543 25 355 9.7 0.0 0.00 0.00 0.00 24 1004.0
20260506003022 25 20 9.7 0.0 0.00 0.00 0.00 24 1004.0
20260506001521 25 355 9.7 0.0 0.00 0.00 0.00 24 1004.0
20260506000003 25 327 11.3 0.0 0.00 0.00 0.00 25 1004.0
20260505234503 25 333 11.3 0.0 0.00 0.00 0.00 23 1004.1
20260505233049 25 350 9.7 0.0 0.00 0.00 0.00 25 1004.2
20260505231551 25 344 11.3 0.0 0.00 0.00 0.00 27 1004.3
20260505230039 25 22 11.3 0.0 0.00 0.00 0.00 24 1004.3
20260505224524 25 325 11.3 0.0 0.00 0.00 0.00 25 1004.3
20260505223003 25 335 8.0 0.0 0.00 0.00 0.00 25 1004.4
20260505221603 25 301 8.0 0.0 0.00 0.00 0.00 27 1004.8
20260505220048 25 334 8.0 0.0 0.00 0.00 0.00 29 1005.1
20260505214545 25 317 8.0 0.0 0.00 0.00 0.00 30 1005.4
20260505213021 24 349 9.7 0.0 0.00 0.00 0.00 30 1005.5
20260505211526 24 299 8.0 0.0 0.00 0.00 0.00 31 1005.7
20260505210055 24 321 8.0 0.0 0.00 0.00 0.00 32 1005.8
20260505204603 23 338 8.0 0.0 0.00 0.00 0.00 31 1006.0
20260505203036 23 290 6.4 0.0 0.00 0.00 0.00 30 1006.1
20260505201539 23 280 6.4 0.0 0.00 0.00 0.00 30 1006.2
20260505200024 23 286 0.0 0.0 0.00 0.00 0.00 31 1006.3
20260505194523 23 264 1.6 0.0 0.00 0.00 0.00 30 1006.5
20260505193022 22 268 3.2 0.0 0.00 0.00 0.00 33 1006.6
20260505191530 22 273 1.6 0.0 0.00 0.00 0.00 32 1006.8
20260505190022 22 242 3.2 0.0 0.00 0.00 0.00 32 1006.9
20260505184528 21 242 1.6 0.0 0.00 0.00 0.00 33 1007.1
20260505183023 21 234 0.0 0.0 0.00 0.00 0.00 35 1007.2
20260505181522 21 234 0.0 0.0 0.00 0.00 0.00 35 1007.4
20260505180008 20 227 4.8 0.0 0.00 0.00 0.00 34 1007.5
20260505174508 20 219 3.2 0.0 0.00 0.00 0.00 35 1007.5
20260505173007 20 232 3.2 0.0 0.00 0.00 0.00 37 1007.5
20260505171513 20 227 8.0 0.0 0.00 0.00 0.00 37 1007.4
20260505170005 19 203 9.7 0.0 0.00 0.00 0.00 36 1007.3
20260505164505 19 183 8.0 0.0 0.00 0.00 0.00 38 1007.2
20260505163009 18 210 6.4 0.0 0.00 0.00 0.00 38 1007.2
20260505161503 18 200 6.4 0.0 0.00 0.00 0.00 38 1007.2
20260505153039 17 194 9.7 0.0 0.00 0.00 0.00 42 1006.8
20260505151530 17 215 9.7 0.0 0.00 0.00 0.00 47 1006.9
20260505124538 11 294 0.0 0.0 0.00 0.00 0.00 66 1004.8
20260505123037 11 292 0.0 0.0 0.00 0.00 0.00 66 1004.6
20260505121525 11 292 0.0 0.0 0.00 0.00 0.00 65 1004.3
20260505120020 11 293 0.0 0.0 0.00 0.00 0.00 62 1004.0
20260505114515 12 293 0.0 0.0 0.00 0.00 0.00 61 1003.7
20260505113014 12 293 0.0 0.0 0.00 0.00 0.00 60 1003.5
20260505111511 12 293 0.0 0.0 0.00 0.00 0.00 59 1003.4
20260505101542 13 293 0.0 0.0 0.00 0.00 0.00 53 1002.5
20260505100022 14 293 0.0 0.0 0.00 0.00 0.00 52 1002.3
20260505094520 14 293 0.0 0.0 0.00 0.00 0.00 51 1002.2
20260505093101 15 293 0.0 0.0 0.00 0.00 0.00 50 1002.1
20260505091600 15 301 0.0 0.0 0.00 0.00 0.00 48 1001.8
20260505090041 15 313 0.0 0.0 0.00 0.00 0.00 49 1001.6
20260505084544 15 315 0.0 0.0 0.00 0.00 0.00 49 1001.5
20260505083021 15 315 0.0 0.0 0.00 0.00 0.00 48 1001.4
20260505081524 15 320 0.0 0.0 0.00 0.00 0.00 49 1001.5
20260505080002 15 321 0.0 0.0 0.00 0.00 0.00 49 1001.4
20260505074502 15 321 0.0 0.0 0.00 0.00 0.00 48 1001.4
20260505073048 16 321 0.0 0.0 0.00 0.00 0.00 48 1001.4
20260505071541 16 321 0.0 0.0 0.00 0.00 0.00 48 1001.4
20260505070021 16 321 0.0 0.0 0.00 0.00 0.00 46 1001.1
20260505064527 16 323 0.0 0.0 0.00 0.00 0.00 45 1000.9
20260505063106 16 324 0.0 0.0 0.00 0.00 0.00 45 1000.9
20260505061601 17 321 0.0 0.0 0.00 0.00 0.00 45 1001.0
20260505060040 17 321 0.0 0.0 0.00 0.00 0.00 44 1000.9
20260505054547 17 321 0.0 0.0 0.00 0.00 0.00 44 1000.7
20260505053026 17 323 0.0 0.0 0.00 0.00 0.00 44 1000.5
20260505051524 17 324 0.0 0.0 0.00 0.00 0.00 44 1000.6